LZ3VG-2 Weather Reports


time (UTC)temp
C
wind
direction
speed
KPH
gust
KPH
rain 1hr
cm
rain 24hr
cm
rain mn
cm
humidity
%
barometer
mb
20260505111516 17 141 20.9 40.2 0.00 0.00 0.00 41 1015.6
20260505110533 18 142 19.3 37.0 0.00 0.00 0.00 40 1015.5
20260505101518 17 137 19.3 38.6 0.00 0.00 0.00 38 1015.6
20260505100535 17 136 19.3 38.6 0.00 0.00 0.00 34 1015.6
20260505095552 17 138 24.1 38.6 0.00 0.00 0.00 36 1015.5
20260505094529 17 141 20.9 45.1 0.00 0.00 0.00 38 1015.7
20260505093546 18 138 24.1 45.1 0.00 0.00 0.00 32 1015.8
20260505092523 18 144 20.9 33.8 0.00 0.00 0.00 31 1015.9
20260505091520 18 139 25.7 38.6 0.00 0.00 0.00 30 1015.8
20260505090517 18 149 19.3 35.4 0.00 0.00 0.00 30 1015.9
20260505085534 18 145 24.1 32.2 0.00 0.00 0.00 32 1016.1
20260505084531 18 142 25.7 38.6 0.00 0.00 0.00 31 1016.1
20260505083527 18 157 16.1 25.7 0.00 0.00 0.00 34 1016.1
20260505082524 18 171 17.7 24.1 0.00 0.00 0.00 38 1016.1
20260505081522 17 155 19.3 27.4 0.00 0.00 0.00 40 1016.2
20260505080519 17 166 17.7 25.7 0.00 0.00 0.00 41 1016.2
20260505075535 17 167 17.7 24.1 0.00 0.00 0.00 41 1016.1
20260505074533 17 163 17.7 24.1 0.00 0.00 0.00 46 1016.2
20260505073550 17 175 16.1 20.9 0.00 0.00 0.00 50 1016.1
20260505072526 16 186 17.7 20.9 0.00 0.00 0.00 53 1016.1
20260505071524 15 186 22.5 25.7 0.00 0.00 0.00 56 1016.2
20260505070521 15 185 20.9 27.4 0.00 0.00 0.00 57 1016.2
20260505065517 15 186 19.3 27.4 0.00 0.00 0.00 58 1016.2
20260505064535 13 189 19.3 27.4 0.00 0.00 0.00 59 1016.1
20260505063532 13 188 19.3 25.7 0.00 0.00 0.00 60 1016.1
20260505062529 13 189 20.9 27.4 0.00 0.00 0.00 61 1016.1
20260505061526 12 185 19.3 25.7 0.00 0.00 0.00 61 1016.0
20260505060529 12 182 19.3 25.7 0.00 0.00 0.00 62 1016.0
20260505055539 11 192 20.9 25.7 0.00 0.00 0.00 66 1015.8
20260505054516 10 195 20.9 25.7 0.00 0.00 0.00 67 1015.7
20260505053534 11 187 17.7 24.1 0.00 0.00 0.00 65 1015.8
20260505052530 10 193 20.9 25.7 0.00 0.00 0.00 68 1015.7
20260505051527 9 195 24.1 29.0 0.00 0.00 0.00 68 1015.7
20260505050525 9 190 19.3 25.7 0.00 0.00 0.00 68 1015.6
20260505041550 7 196 22.5 32.2 0.00 0.00 0.00 69 1015.5
20260505040527 7 195 22.5 30.6 0.00 0.00 0.00 71 1015.2
20260505035524 6 195 22.5 32.2 0.00 0.00 0.00 74 1015.2
20260505034521 6 190 17.7 24.1 0.00 0.00 0.00 75 1015.3
20260505033518 7 183 17.7 25.7 0.00 0.00 0.00 73 1015.3
20260505032536 7 177 16.1 22.5 0.00 0.00 0.00 69 1015.1
20260505031533 7 187 16.1 22.5 0.00 0.00 0.00 69 1014.9
20260505030530 6 189 16.1 24.1 0.00 0.00 0.00 71 1014.9
20260505025526 6 191 17.7 24.1 0.00 0.00 0.00 76 1014.8
20260505024524 5 190 19.3 25.7 0.00 0.00 0.00 82 1014.9
20260505023521 5 192 20.9 32.2 0.00 0.00 0.00 81 1014.8
20260505022518 5 193 19.3 25.7 0.00 0.00 0.00 79 1014.8
20260505021555 5 197 24.1 33.8 0.00 0.00 0.00 77 1014.9
20260505020532 5 190 20.9 27.4 0.00 0.00 0.00 80 1014.8
20260505015529 5 193 22.5 30.6 0.00 0.00 0.00 82 1014.9
20260505014526 5 198 22.5 32.2 0.00 0.00 0.00 79 1014.9
20260505013603 5 194 22.5 30.6 0.00 0.00 0.00 80 1015.0
20260505012520 5 190 20.9 27.4 0.00 0.00 0.00 80 1015.0
20260505011517 5 187 16.1 22.5 0.00 0.00 0.00 79 1015.0
20260505010535 6 187 19.3 29.0 0.00 0.00 0.00 78 1015.0
20260505005531 6 192 20.9 29.0 0.00 0.00 0.00 76 1015.0
20260505004529 6 190 20.9 27.4 0.00 0.00 0.00 75 1015.0
20260505003526 6 191 22.5 30.6 0.00 0.00 0.00 76 1015.1
20260505002522 6 188 19.3 24.1 0.00 0.00 0.00 76 1015.1
20260505001540 6 183 17.7 22.5 0.00 0.00 0.00 74 1015.1
20260505000517 5 188 17.7 22.5 0.00 0.00 0.00 76 1015.2
20260504235534 5 188 16.1 22.5 0.00 0.00 0.00 77 1015.1
20260504234531 5 193 17.7 25.7 0.00 0.00 0.00 77 1015.3
20260504233549 6 188 17.7 20.9 0.00 0.00 0.00 76 1015.2
20260504232525 6 188 19.3 20.9 0.00 0.00 0.00 73 1015.3
20260504231522 7 185 17.7 19.3 0.00 0.00 0.00 71 1015.3
20260504230520 7 183 17.7 20.9 0.00 0.00 0.00 72 1015.6
20260504225516 7 188 17.7 20.9 0.00 0.00 0.00 71 1015.6
20260504224533 7 186 17.7 20.9 0.00 0.00 0.00 69 1015.6
20260504223530 8 183 17.7 22.5 0.00 0.00 0.00 68 1015.8
20260504222527 8 180 16.1 19.3 0.00 0.00 0.00 66 1015.7
20260504221544 8 187 16.1 19.3 0.00 0.00 0.00 63 1015.9
20260504220521 8 182 14.5 17.7 0.00 0.00 0.00 63 1015.9
20260504215519 9 186 16.1 20.9 0.00 0.00 0.00 63 1016.0
20260504214516 9 198 16.1 24.1 0.00 0.00 0.00 62 1015.9
20260504213533 8 197 17.7 22.5 0.00 0.00 0.00 64 1015.9
20260504212550 9 205 17.7 24.1 0.00 0.00 0.00 61 1016.0
20260504211627 9 196 14.5 19.3 0.00 0.00 0.00 63 1016.0
20260504210524 8 191 14.5 20.9 0.00 0.00 0.00 63 1015.9
20260504205521 9 192 14.5 20.9 0.00 0.00 0.00 62 1015.8
20260504204518 10 195 17.7 24.1 0.00 0.00 0.00 56 1015.9
20260504203535 10 180 14.5 16.1 0.00 0.00 0.00 53 1015.9
20260504202532 11 183 16.1 17.7 0.00 0.00 0.00 51 1015.9
20260504201529 11 189 17.7 19.3 0.00 0.00 0.00 51 1016.0
20260504200546 11 190 17.7 20.9 0.00 0.00 0.00 50 1015.9
20260504195543 11 187 16.1 19.3 0.00 0.00 0.00 50 1015.9
20260504194520 11 189 17.7 20.9 0.00 0.00 0.00 49 1015.9
20260504193517 11 189 17.7 20.9 0.00 0.00 0.00 51 1015.9
20260504192534 11 189 17.7 20.9 0.00 0.00 0.00 51 1015.9
20260504191530 11 196 19.3 24.1 0.00 0.00 0.00 50 1016.0
20260504190528 11 194 20.9 22.5 0.00 0.00 0.00 51 1015.9
20260504185524 12 190 17.7 20.9 0.00 0.00 0.00 52 1016.0
20260504184542 12 183 19.3 20.9 0.00 0.00 0.00 49 1015.9
20260504183518 12 181 17.7 20.9 0.00 0.00 0.00 47 1016.0
20260504182535 12 183 19.3 20.9 0.00 0.00 0.00 47 1016.0
20260504181533 12 182 16.1 19.3 0.00 0.00 0.00 47 1015.7
20260504180530 12 179 16.1 17.7 0.00 0.00 0.00 47 1015.9
20260504175527 12 172 16.1 19.3 0.00 0.00 0.00 48 1015.8
20260504174523 12 180 16.1 17.7 0.00 0.00 0.00 49 1015.7
20260504173521 12 181 16.1 19.3 0.00 0.00 0.00 49 1015.7
20260504172517 12 174 16.1 19.3 0.00 0.00 0.00 48 1015.6
20260504171555 13 165 19.3 24.1 0.00 0.00 0.00 47 1015.5
20260504170532 13 157 19.3 25.7 0.00 0.00 0.00 45 1015.4
20260504150535 15 141 20.9 38.6 0.00 0.00 0.00 46 1014.6
20260504140517 15 148 20.9 33.8 0.00 0.00 0.00 44 1014.5
20260504130519 16 159 14.5 24.1 0.00 0.00 0.00 45 1014.1